Year,Month,Day,Hour,Minute,Value (Times are PST for temperature in C)
2016,07,25,00,00,21.30
2016,07,25,00,01,21.30
2016,07,25,00,02,21.30
2016,07,25,00,03,21.20
2016,07,25,00,04,21.20
2016,07,25,00,05,21.10
2016,07,25,00,06,21.10
2016,07,25,00,07,21.00
2016,07,25,00,08,20.90
2016,07,25,00,09,20.90
2016,07,25,00,10,20.80
2016,07,25,00,11,20.80
2016,07,25,00,12,20.80
2016,07,25,00,13,20.80
2016,07,25,00,14,20.80
2016,07,25,00,15,20.80
2016,07,25,00,16,20.70
2016,07,25,00,17,20.70
2016,07,25,00,18,20.60
2016,07,25,00,19,20.60
2016,07,25,00,20,20.60
2016,07,25,00,21,20.50
2016,07,25,00,22,20.40
2016,07,25,00,23,20.40
2016,07,25,00,24,20.40
2016,07,25,00,25,20.40
2016,07,25,00,26,20.40
2016,07,25,00,27,20.30
2016,07,25,00,28,20.30
2016,07,25,00,29,20.30
2016,07,25,00,30,20.20
2016,07,25,00,31,20.20
2016,07,25,00,32,20.20
2016,07,25,00,33,20.10
2016,07,25,00,34,20.10
2016,07,25,00,35,20.00
2016,07,25,00,36,20.00
2016,07,25,00,37,19.90
2016,07,25,00,38,19.80
2016,07,25,00,39,19.80
2016,07,25,00,40,19.70
2016,07,25,00,41,19.70
2016,07,25,00,42,19.60
2016,07,25,00,43,19.50
2016,07,25,00,44,19.40
2016,07,25,00,45,19.30
2016,07,25,00,46,19.20
2016,07,25,00,47,19.20
2016,07,25,00,48,19.10
2016,07,25,00,49,19.10
2016,07,25,00,50,19.10
2016,07,25,00,51,19.00
2016,07,25,00,52,19.00
2016,07,25,00,53,19.00
2016,07,25,00,54,18.90
2016,07,25,00,55,18.90
2016,07,25,00,56,18.80
2016,07,25,00,57,18.80
2016,07,25,00,58,18.80
2016,07,25,00,59,18.80
2016,07,25,01,00,18.70
2016,07,25,01,01,18.70
2016,07,25,01,02,18.70
2016,07,25,01,03,18.70
2016,07,25,01,04,18.70
2016,07,25,01,05,18.70
2016,07,25,01,06,18.70
2016,07,25,01,07,18.70
2016,07,25,01,08,18.70
2016,07,25,01,09,18.70
2016,07,25,01,10,18.60
2016,07,25,01,11,18.60
2016,07,25,01,12,18.60
2016,07,25,01,13,18.70
2016,07,25,01,14,18.70
2016,07,25,01,15,18.70
2016,07,25,01,16,18.70
2016,07,25,01,17,18.70
2016,07,25,01,18,18.70
2016,07,25,01,19,18.70
2016,07,25,01,20,18.70
2016,07,25,01,21,18.70
2016,07,25,01,22,18.70
2016,07,25,01,23,18.60
2016,07,25,01,24,18.60
2016,07,25,01,25,18.50
2016,07,25,01,26,18.50
2016,07,25,01,27,18.50
2016,07,25,01,28,18.40
2016,07,25,01,29,18.40
2016,07,25,01,30,18.40
2016,07,25,01,31,18.40
2016,07,25,01,32,18.40
2016,07,25,01,33,18.50
2016,07,25,01,34,18.50
2016,07,25,01,35,18.50
2016,07,25,01,36,18.60
2016,07,25,01,37,18.60
2016,07,25,01,38,18.70
2016,07,25,01,39,18.80
2016,07,25,01,40,18.80
2016,07,25,01,41,18.80
2016,07,25,01,42,18.90
2016,07,25,01,43,19.00
2016,07,25,01,44,19.10
2016,07,25,01,45,19.20
2016,07,25,01,46,19.20
2016,07,25,01,47,19.30
2016,07,25,01,48,19.30
2016,07,25,01,49,19.40
2016,07,25,01,50,19.40
2016,07,25,01,51,19.50
2016,07,25,01,52,19.60
2016,07,25,01,53,19.70
2016,07,25,01,54,19.70
2016,07,25,01,55,19.70
2016,07,25,01,56,19.70
2016,07,25,01,57,19.70
2016,07,25,01,58,19.70
2016,07,25,01,59,19.70
2016,07,25,02,00,19.70
2016,07,25,02,01,19.70
2016,07,25,02,02,19.70
2016,07,25,02,03,19.70
2016,07,25,02,04,19.60
2016,07,25,02,05,19.60
2016,07,25,02,06,19.60
2016,07,25,02,07,19.60
2016,07,25,02,08,19.60
2016,07,25,02,09,19.60
2016,07,25,02,10,19.50
2016,07,25,02,11,19.50
2016,07,25,02,12,19.50
2016,07,25,02,13,19.40
2016,07,25,02,14,19.40
2016,07,25,02,15,19.40
2016,07,25,02,16,19.30
2016,07,25,02,17,19.30
2016,07,25,02,18,19.30
2016,07,25,02,19,19.30
2016,07,25,02,20,19.30
2016,07,25,02,21,19.30
2016,07,25,02,22,19.30
2016,07,25,02,23,19.30
2016,07,25,02,24,19.30
2016,07,25,02,25,19.20
2016,07,25,02,26,19.20
2016,07,25,02,27,19.20
2016,07,25,02,28,19.20
2016,07,25,02,29,19.10
2016,07,25,02,30,19.10
2016,07,25,02,31,19.10
2016,07,25,02,32,19.00
2016,07,25,02,33,19.00
2016,07,25,02,34,19.00
2016,07,25,02,35,18.90
2016,07,25,02,36,18.90
2016,07,25,02,37,18.90
2016,07,25,02,38,18.90
2016,07,25,02,39,18.90
2016,07,25,02,40,18.90
2016,07,25,02,41,18.90
2016,07,25,02,42,18.90
2016,07,25,02,43,18.80
2016,07,25,02,44,18.80
2016,07,25,02,45,18.80
2016,07,25,02,46,18.80
2016,07,25,02,47,18.80
2016,07,25,02,48,18.80
2016,07,25,02,49,18.80
2016,07,25,02,50,18.80
2016,07,25,02,51,18.80
2016,07,25,02,52,18.90
2016,07,25,02,53,18.90
2016,07,25,02,54,18.90
2016,07,25,02,55,18.90
2016,07,25,02,56,18.90
2016,07,25,02,57,18.90
2016,07,25,02,58,18.90
2016,07,25,02,59,18.90
2016,07,25,03,00,18.80
2016,07,25,03,01,18.80
2016,07,25,03,02,18.80
2016,07,25,03,03,18.80
2016,07,25,03,04,18.90
2016,07,25,03,05,18.90
2016,07,25,03,06,19.00
2016,07,25,03,07,19.00
2016,07,25,03,08,19.10
2016,07,25,03,09,19.10
2016,07,25,03,10,19.10
2016,07,25,03,11,19.10
2016,07,25,03,12,19.20
2016,07,25,03,13,19.30
2016,07,25,03,14,19.30
2016,07,25,03,15,19.30
2016,07,25,03,16,19.40
2016,07,25,03,17,19.50
2016,07,25,03,18,19.60
2016,07,25,03,19,19.70
2016,07,25,03,20,19.70
2016,07,25,03,21,19.80
2016,07,25,03,22,19.80
2016,07,25,03,23,19.90
2016,07,25,03,24,19.90
2016,07,25,03,25,19.90
2016,07,25,03,26,19.90
2016,07,25,03,27,19.80
2016,07,25,03,28,19.80
2016,07,25,03,29,19.80
2016,07,25,03,30,19.90
2016,07,25,03,31,19.90
2016,07,25,03,32,19.90
2016,07,25,03,33,19.90
2016,07,25,03,34,19.90
2016,07,25,03,35,19.90
2016,07,25,03,36,19.90
2016,07,25,03,37,19.90
2016,07,25,03,38,19.90
2016,07,25,03,39,19.90
2016,07,25,03,40,19.90
2016,07,25,03,41,19.90
2016,07,25,03,42,19.90
2016,07,25,03,43,19.80
2016,07,25,03,44,19.80
2016,07,25,03,45,19.70
2016,07,25,03,46,19.70
2016,07,25,03,47,19.60
2016,07,25,03,48,19.60
2016,07,25,03,49,19.50
2016,07,25,03,50,19.40
2016,07,25,03,51,19.40
2016,07,25,03,52,19.30
2016,07,25,03,53,19.20
2016,07,25,03,54,19.20
2016,07,25,03,55,19.20
2016,07,25,03,56,19.10
2016,07,25,03,57,19.10
2016,07,25,03,58,19.00
2016,07,25,03,59,19.00
2016,07,25,04,00,18.90
2016,07,25,04,01,18.80
2016,07,25,04,02,18.80
2016,07,25,04,03,18.70
2016,07,25,04,04,18.70
2016,07,25,04,05,18.60
2016,07,25,04,06,18.60
2016,07,25,04,07,18.50
2016,07,25,04,08,18.40
2016,07,25,04,09,18.40
2016,07,25,04,10,18.30
2016,07,25,04,11,18.30
2016,07,25,04,12,18.20
2016,07,25,04,13,18.20
2016,07,25,04,14,18.10
2016,07,25,04,15,18.10
2016,07,25,04,16,18.00
2016,07,25,04,17,18.00
2016,07,25,04,18,17.90
2016,07,25,04,19,17.90
2016,07,25,04,20,17.90
2016,07,25,04,21,17.90
2016,07,25,04,22,17.90
2016,07,25,04,23,17.90
2016,07,25,04,24,17.90
2016,07,25,04,25,17.90
2016,07,25,04,26,17.90
2016,07,25,04,27,17.90
2016,07,25,04,28,17.90
2016,07,25,04,29,17.90
2016,07,25,04,30,17.90
2016,07,25,04,31,17.80
2016,07,25,04,32,17.80
2016,07,25,04,33,17.80
2016,07,25,04,34,17.80
2016,07,25,04,35,17.80
2016,07,25,04,36,17.80
2016,07,25,04,37,17.80
2016,07,25,04,38,17.80
2016,07,25,04,39,17.80
2016,07,25,04,40,17.80
2016,07,25,04,41,17.80
2016,07,25,04,42,17.80
2016,07,25,04,43,17.80
2016,07,25,04,44,17.80
2016,07,25,04,45,17.80
2016,07,25,04,46,17.90
2016,07,25,04,47,17.90
2016,07,25,04,48,18.00
2016,07,25,04,49,18.10
2016,07,25,04,50,18.10
2016,07,25,04,51,18.10
2016,07,25,04,52,18.10
2016,07,25,04,53,18.10
2016,07,25,04,54,18.10
2016,07,25,04,55,18.20
2016,07,25,04,56,18.20
2016,07,25,04,57,18.20
2016,07,25,04,58,18.20
2016,07,25,04,59,18.20
2016,07,25,05,00,18.20
2016,07,25,05,01,18.20
2016,07,25,05,02,18.20
2016,07,25,05,03,18.20
2016,07,25,05,04,18.20
2016,07,25,05,05,18.20
2016,07,25,05,06,18.20
2016,07,25,05,07,18.20
2016,07,25,05,08,18.20
2016,07,25,05,09,18.20
2016,07,25,05,10,18.20
2016,07,25,05,11,18.20
2016,07,25,05,12,18.20
2016,07,25,05,13,18.20
2016,07,25,05,14,18.20
2016,07,25,05,15,18.20
2016,07,25,05,16,18.20
2016,07,25,05,17,18.20
2016,07,25,05,18,18.20
2016,07,25,05,19,18.20
2016,07,25,05,20,18.20
2016,07,25,05,21,18.20
2016,07,25,05,22,18.20
2016,07,25,05,23,18.20
2016,07,25,05,24,18.20
2016,07,25,05,25,18.20
2016,07,25,05,26,18.10
2016,07,25,05,27,18.10
2016,07,25,05,28,18.10
2016,07,25,05,29,18.10
2016,07,25,05,30,18.10
2016,07,25,05,31,18.10
2016,07,25,05,32,18.10
2016,07,25,05,33,18.10
2016,07,25,05,34,18.10
2016,07,25,05,35,18.10
2016,07,25,05,36,18.20
2016,07,25,05,37,18.20
2016,07,25,05,38,18.30
2016,07,25,05,39,18.30
2016,07,25,05,40,18.30
2016,07,25,05,41,18.40
2016,07,25,05,42,18.50
2016,07,25,05,43,18.50
2016,07,25,05,44,18.60
2016,07,25,05,45,18.70
2016,07,25,05,46,18.70
2016,07,25,05,47,18.80
2016,07,25,05,48,18.80
2016,07,25,05,49,18.80
2016,07,25,05,50,18.80
2016,07,25,05,51,18.80
2016,07,25,05,52,18.80
2016,07,25,05,53,18.80
2016,07,25,05,54,18.80
2016,07,25,05,55,18.80
2016,07,25,05,56,18.80
2016,07,25,05,57,18.80
2016,07,25,05,58,18.80
2016,07,25,05,59,18.80
2016,07,25,06,00,18.80
2016,07,25,06,01,18.80
2016,07,25,06,02,18.80
2016,07,25,06,03,18.80
2016,07,25,06,04,18.80
2016,07,25,06,05,18.80
2016,07,25,06,06,18.80
2016,07,25,06,07,18.80
2016,07,25,06,08,18.80
2016,07,25,06,09,18.80
2016,07,25,06,10,18.70
2016,07,25,06,11,18.70
2016,07,25,06,12,18.70
2016,07,25,06,13,18.70
2016,07,25,06,14,18.70
2016,07,25,06,15,18.60
2016,07,25,06,16,18.60
2016,07,25,06,17,18.60
2016,07,25,06,18,18.60
2016,07,25,06,19,18.60
2016,07,25,06,20,18.60
2016,07,25,06,21,18.60
2016,07,25,06,22,18.70
2016,07,25,06,23,18.70
2016,07,25,06,24,18.70
2016,07,25,06,25,18.70
2016,07,25,06,26,18.80
2016,07,25,06,27,18.80
2016,07,25,06,28,18.80
2016,07,25,06,29,18.80
2016,07,25,06,30,18.80
2016,07,25,06,31,18.90
2016,07,25,06,32,18.90
2016,07,25,06,33,18.90
2016,07,25,06,34,18.90
2016,07,25,06,35,18.90
2016,07,25,06,36,18.90
2016,07,25,06,37,18.80
2016,07,25,06,38,18.80
2016,07,25,06,39,18.80
2016,07,25,06,40,18.70
2016,07,25,06,41,18.70
2016,07,25,06,42,18.70
2016,07,25,06,43,18.70
2016,07,25,06,44,18.60
2016,07,25,06,45,18.60
2016,07,25,06,46,18.60
2016,07,25,06,47,18.60
2016,07,25,06,48,18.60
2016,07,25,06,49,18.60
2016,07,25,06,50,18.70
2016,07,25,06,51,18.70
2016,07,25,06,52,18.70
2016,07,25,06,53,18.70
2016,07,25,06,54,18.70
2016,07,25,06,55,18.70
2016,07,25,06,56,18.70
2016,07,25,06,57,18.70
2016,07,25,06,58,18.70
2016,07,25,06,59,18.70
2016,07,25,07,00,18.80
2016,07,25,07,01,18.80
2016,07,25,07,02,18.80
2016,07,25,07,03,18.80
2016,07,25,07,04,18.80
2016,07,25,07,05,18.80
2016,07,25,07,06,18.80
2016,07,25,07,07,18.80
2016,07,25,07,08,18.80
2016,07,25,07,09,18.80
2016,07,25,07,10,18.80
2016,07,25,07,11,18.80
2016,07,25,07,12,18.80
2016,07,25,07,13,18.80
2016,07,25,07,14,18.80
2016,07,25,07,15,18.80
2016,07,25,07,16,18.80
2016,07,25,07,17,18.80
2016,07,25,07,18,18.80
2016,07,25,07,19,18.80
2016,07,25,07,20,18.80
2016,07,25,07,21,18.80
2016,07,25,07,22,18.80
2016,07,25,07,23,18.80
2016,07,25,07,24,18.80
2016,07,25,07,25,18.80
2016,07,25,07,26,18.90
2016,07,25,07,27,18.90
2016,07,25,07,28,19.00
2016,07,25,07,29,19.00
2016,07,25,07,30,19.10
2016,07,25,07,31,19.20
2016,07,25,07,32,19.20
2016,07,25,07,33,19.30
2016,07,25,07,34,19.30
2016,07,25,07,35,19.30
2016,07,25,07,36,19.30
2016,07,25,07,37,19.30
2016,07,25,07,38,19.30
2016,07,25,07,39,19.30
2016,07,25,07,40,19.30
2016,07,25,07,41,19.30
2016,07,25,07,42,19.30
2016,07,25,07,43,19.30
2016,07,25,07,44,19.30
2016,07,25,07,45,19.30
2016,07,25,07,46,19.30
2016,07,25,07,47,19.40
2016,07,25,07,48,19.40
2016,07,25,07,49,19.40
2016,07,25,07,50,19.40
2016,07,25,07,51,19.50
2016,07,25,07,52,19.50
2016,07,25,07,53,19.60
2016,07,25,07,54,19.60
2016,07,25,07,55,19.60
2016,07,25,07,56,19.60
2016,07,25,07,57,19.70
2016,07,25,07,58,19.70
2016,07,25,07,59,19.80
2016,07,25,08,00,19.80
2016,07,25,08,01,19.80
2016,07,25,08,02,19.80
2016,07,25,08,03,19.80
2016,07,25,08,04,19.90
2016,07,25,08,05,19.90
2016,07,25,08,06,19.90
2016,07,25,08,07,20.00
2016,07,25,08,08,20.00
2016,07,25,08,09,20.10
2016,07,25,08,10,20.10
2016,07,25,08,11,20.10
2016,07,25,08,12,20.10
2016,07,25,08,13,20.10
2016,07,25,08,14,20.10
2016,07,25,08,15,20.10
2016,07,25,08,16,20.10
2016,07,25,08,17,20.10
2016,07,25,08,18,20.10
2016,07,25,08,19,20.10
2016,07,25,08,20,20.10
2016,07,25,08,21,20.10
2016,07,25,08,22,20.10
2016,07,25,08,23,20.10
2016,07,25,08,24,20.10
2016,07,25,08,25,20.10
2016,07,25,08,26,20.10
2016,07,25,08,27,20.10
2016,07,25,08,28,20.10
2016,07,25,08,29,20.10
2016,07,25,08,30,20.10
2016,07,25,08,31,20.10
2016,07,25,08,32,20.10
2016,07,25,08,33,20.10
2016,07,25,08,34,20.10
2016,07,25,08,35,20.20
2016,07,25,08,36,20.20
2016,07,25,08,37,20.20
2016,07,25,08,38,20.20
2016,07,25,08,39,20.30
2016,07,25,08,40,20.30
2016,07,25,08,41,20.40
2016,07,25,08,42,20.40
2016,07,25,08,43,20.50
2016,07,25,08,44,20.50
2016,07,25,08,45,20.60
2016,07,25,08,46,20.60
2016,07,25,08,47,20.60
2016,07,25,08,48,20.60
2016,07,25,08,49,20.60
2016,07,25,08,50,20.60
2016,07,25,08,51,20.60
2016,07,25,08,52,20.60
2016,07,25,08,53,20.60
2016,07,25,08,54,20.60
2016,07,25,08,55,20.70
2016,07,25,08,56,20.70
2016,07,25,08,57,20.80
2016,07,25,08,58,20.80
2016,07,25,08,59,20.90
2016,07,25,09,00,21.00
2016,07,25,09,01,21.00
2016,07,25,09,02,21.10
2016,07,25,09,03,21.10
2016,07,25,09,04,21.10
2016,07,25,09,05,21.10
2016,07,25,09,06,21.20
2016,07,25,09,07,21.20
2016,07,25,09,08,21.20
2016,07,25,09,09,21.20
2016,07,25,09,10,21.30
2016,07,25,09,11,21.30
2016,07,25,09,12,21.30
2016,07,25,09,13,21.30
2016,07,25,09,14,21.30
2016,07,25,09,15,21.20
2016,07,25,09,16,21.20
2016,07,25,09,17,21.20
2016,07,25,09,18,21.10
2016,07,25,09,19,21.10
2016,07,25,09,20,21.10
2016,07,25,09,21,21.10
2016,07,25,09,22,21.10
2016,07,25,09,23,21.00
2016,07,25,09,24,20.90
2016,07,25,09,25,20.80
2016,07,25,09,26,20.70
2016,07,25,09,27,20.70
2016,07,25,09,28,20.60
2016,07,25,09,29,20.60
2016,07,25,09,30,20.60
2016,07,25,09,31,20.60
2016,07,25,09,32,20.60
2016,07,25,09,33,20.60
2016,07,25,09,34,20.60
2016,07,25,09,35,20.60
2016,07,25,09,36,20.60
2016,07,25,09,37,20.70
2016,07,25,09,38,20.70
2016,07,25,09,39,20.70
2016,07,25,09,40,20.70
2016,07,25,09,41,20.70
2016,07,25,09,42,20.80
2016,07,25,09,43,20.80
2016,07,25,09,44,20.80
2016,07,25,09,45,20.80
2016,07,25,09,46,20.90
2016,07,25,09,47,20.90
2016,07,25,09,48,21.00
2016,07,25,09,49,21.00
2016,07,25,09,50,21.10
2016,07,25,09,51,21.10
2016,07,25,09,52,21.10
2016,07,25,09,53,21.10
2016,07,25,09,54,21.20
2016,07,25,09,55,21.20
2016,07,25,09,56,21.20
2016,07,25,09,57,21.30
2016,07,25,09,58,21.30
2016,07,25,09,59,21.40
2016,07,25,10,00,21.40
2016,07,25,10,01,21.50
2016,07,25,10,02,21.50
2016,07,25,10,03,21.50
2016,07,25,10,04,21.50
2016,07,25,10,05,21.50
2016,07,25,10,06,21.50
2016,07,25,10,07,21.60
2016,07,25,10,08,21.70
2016,07,25,10,09,21.70
2016,07,25,10,10,21.80
2016,07,25,10,11,21.80
2016,07,25,10,12,21.90
2016,07,25,10,13,21.90
2016,07,25,10,14,21.90
2016,07,25,10,15,22.00
2016,07,25,10,16,22.10
2016,07,25,10,17,22.20
2016,07,25,10,18,22.20
2016,07,25,10,19,22.20
2016,07,25,10,20,22.20
2016,07,25,10,21,22.20
2016,07,25,10,22,22.20
2016,07,25,10,23,22.20
2016,07,25,10,24,22.10
2016,07,25,10,25,22.10
2016,07,25,10,26,22.10
2016,07,25,10,27,22.10
2016,07,25,10,28,22.10
2016,07,25,10,29,22.10
2016,07,25,10,30,22.10
2016,07,25,10,31,22.10
2016,07,25,10,32,22.20
2016,07,25,10,33,22.20
2016,07,25,10,34,22.20
2016,07,25,10,35,22.20
2016,07,25,10,36,22.10
2016,07,25,10,37,22.10
2016,07,25,10,38,22.10
2016,07,25,10,39,22.10
2016,07,25,10,40,22.20
2016,07,25,10,41,22.20
2016,07,25,10,42,22.30
2016,07,25,10,43,22.30
2016,07,25,10,44,22.30
2016,07,25,10,45,22.40
2016,07,25,10,46,22.40
2016,07,25,10,47,22.40
2016,07,25,10,48,22.40
2016,07,25,10,49,22.40
2016,07,25,10,50,22.40
2016,07,25,10,51,22.40
2016,07,25,10,52,22.50
2016,07,25,10,53,22.50
2016,07,25,10,54,22.50
2016,07,25,10,55,22.40
2016,07,25,10,56,22.40
2016,07,25,10,57,22.30
2016,07,25,10,58,22.30
2016,07,25,10,59,22.20
2016,07,25,11,00,22.10
2016,07,25,11,01,22.00
2016,07,25,11,02,21.90
2016,07,25,11,03,21.90
2016,07,25,11,04,22.00
2016,07,25,11,05,22.00
2016,07,25,11,06,22.00
2016,07,25,11,07,22.00
2016,07,25,11,08,21.90
2016,07,25,11,09,21.90
2016,07,25,11,10,21.90
2016,07,25,11,11,21.80
2016,07,25,11,12,21.80
2016,07,25,11,13,21.70
2016,07,25,11,14,21.70
2016,07,25,11,15,21.70
2016,07,25,11,16,21.70
2016,07,25,11,17,21.60
2016,07,25,11,18,21.60
2016,07,25,11,19,21.60
2016,07,25,11,20,21.70
2016,07,25,11,21,21.70
2016,07,25,11,22,21.80
2016,07,25,11,23,21.80
2016,07,25,11,24,21.90
2016,07,25,11,25,21.90
2016,07,25,11,26,21.90
2016,07,25,11,27,21.90
2016,07,25,11,28,22.00
2016,07,25,11,29,22.00
2016,07,25,11,30,22.00
2016,07,25,11,31,22.10
2016,07,25,11,32,22.10
2016,07,25,11,33,22.10
2016,07,25,11,34,22.10
2016,07,25,11,35,22.10
2016,07,25,11,36,22.10
2016,07,25,11,37,22.00
2016,07,25,11,38,22.00
2016,07,25,11,39,22.10
2016,07,25,11,40,22.20
2016,07,25,11,41,22.30
2016,07,25,11,42,22.30
2016,07,25,11,43,22.30
2016,07,25,11,44,22.30
2016,07,25,11,45,22.40
2016,07,25,11,46,22.50
2016,07,25,11,47,22.60
2016,07,25,11,48,22.70
2016,07,25,11,49,22.70
2016,07,25,11,50,22.80
2016,07,25,11,51,22.80
2016,07,25,11,52,22.80
2016,07,25,11,53,22.80
2016,07,25,11,54,22.80
2016,07,25,11,55,22.80
2016,07,25,11,56,22.90
2016,07,25,11,57,22.90
2016,07,25,11,58,23.00
2016,07,25,11,59,23.10
2016,07,25,12,00,23.20
2016,07,25,12,01,23.30
2016,07,25,12,02,23.40
2016,07,25,12,03,23.40
2016,07,25,12,04,23.50
2016,07,25,12,05,23.50
2016,07,25,12,06,23.50
2016,07,25,12,07,23.50
2016,07,25,12,08,23.40
2016,07,25,12,09,23.30
2016,07,25,12,10,23.30
2016,07,25,12,11,23.40
2016,07,25,12,12,23.40
2016,07,25,12,13,23.30
2016,07,25,12,14,23.30
2016,07,25,12,15,23.30
2016,07,25,12,16,23.30
2016,07,25,12,17,23.20
2016,07,25,12,18,23.20
2016,07,25,12,19,23.20
2016,07,25,12,20,23.20
2016,07,25,12,21,23.20
2016,07,25,12,22,23.30
2016,07,25,12,23,23.30
2016,07,25,12,24,23.30
2016,07,25,12,25,23.40
2016,07,25,12,26,23.40
2016,07,25,12,27,23.50
2016,07,25,12,28,23.60
2016,07,25,12,29,23.60
2016,07,25,12,30,23.70
2016,07,25,12,31,23.70
2016,07,25,12,32,23.70
2016,07,25,12,33,23.70
2016,07,25,12,34,23.70
2016,07,25,12,35,23.70
2016,07,25,12,36,23.70
2016,07,25,12,37,23.80
2016,07,25,12,38,23.80
2016,07,25,12,39,23.80
2016,07,25,12,40,23.70
2016,07,25,12,41,23.70
2016,07,25,12,42,23.70
2016,07,25,12,43,23.70
2016,07,25,12,44,23.70
2016,07,25,12,45,23.80
2016,07,25,12,46,23.90
2016,07,25,12,47,24.00
2016,07,25,12,48,24.10
2016,07,25,12,49,24.10
2016,07,25,12,50,24.10
2016,07,25,12,51,24.20
2016,07,25,12,52,24.20
2016,07,25,12,53,24.20
2016,07,25,12,54,24.20
2016,07,25,12,55,24.10
2016,07,25,12,56,24.00
2016,07,25,12,57,23.90
2016,07,25,12,58,23.80
2016,07,25,12,59,23.80
2016,07,25,13,00,23.80
2016,07,25,13,01,23.90
2016,07,25,13,02,24.00
2016,07,25,13,03,24.00
2016,07,25,13,04,24.10
2016,07,25,13,05,24.10
2016,07,25,13,06,24.10
2016,07,25,13,07,24.10
2016,07,25,13,08,24.10
2016,07,25,13,09,24.10
2016,07,25,13,10,24.00
2016,07,25,13,11,23.90
2016,07,25,13,12,23.90
2016,07,25,13,13,23.90
2016,07,25,13,14,23.90
2016,07,25,13,15,24.00
2016,07,25,13,16,23.90
2016,07,25,13,17,24.00
2016,07,25,13,18,24.00
2016,07,25,13,19,24.00
2016,07,25,13,20,24.00
2016,07,25,13,21,24.10
2016,07,25,13,22,24.10
2016,07,25,13,23,24.10
2016,07,25,13,24,24.10
2016,07,25,13,25,24.10
2016,07,25,13,26,24.10
2016,07,25,13,27,24.10
2016,07,25,13,28,24.20
2016,07,25,13,29,24.30
2016,07,25,13,30,24.40
2016,07,25,13,31,24.40
2016,07,25,13,32,24.40
2016,07,25,13,33,24.50
2016,07,25,13,34,24.50
2016,07,25,13,35,24.50
2016,07,25,13,36,24.50
2016,07,25,13,37,24.60
2016,07,25,13,38,24.50
2016,07,25,13,39,24.50
2016,07,25,13,40,24.40
2016,07,25,13,41,24.40
2016,07,25,13,42,24.30
2016,07,25,13,43,24.30
2016,07,25,13,44,24.30
2016,07,25,13,45,24.20
2016,07,25,13,46,24.20
2016,07,25,13,47,24.20
2016,07,25,13,48,24.20
2016,07,25,13,49,24.20
2016,07,25,13,50,24.20
2016,07,25,13,51,24.30
2016,07,25,13,52,24.40
2016,07,25,13,53,24.50
2016,07,25,13,54,24.60
2016,07,25,13,55,24.70
2016,07,25,13,56,24.80
2016,07,25,13,57,24.80
2016,07,25,13,58,24.90
2016,07,25,13,59,25.00
2016,07,25,14,00,25.00
2016,07,25,14,01,25.10
2016,07,25,14,02,25.20
2016,07,25,14,03,25.30
2016,07,25,14,04,25.30
2016,07,25,14,05,25.30
2016,07,25,14,06,25.30
2016,07,25,14,07,25.30
2016,07,25,14,08,25.30
2016,07,25,14,09,25.30
2016,07,25,14,10,25.50
2016,07,25,14,11,25.50
2016,07,25,14,12,25.50
2016,07,25,14,13,25.40
2016,07,25,14,14,25.40
2016,07,25,14,15,25.50
2016,07,25,14,16,25.50
2016,07,25,14,17,25.50
2016,07,25,14,18,25.50
2016,07,25,14,19,25.40
2016,07,25,14,20,25.40
2016,07,25,14,21,25.30
2016,07,25,14,22,25.30
2016,07,25,14,23,25.40
2016,07,25,14,24,25.50
2016,07,25,14,25,25.50
2016,07,25,14,26,25.60
2016,07,25,14,27,25.70
2016,07,25,14,28,25.80
2016,07,25,14,29,26.00
2016,07,25,14,30,26.00
2016,07,25,14,31,26.10
2016,07,25,14,32,26.10
2016,07,25,14,33,26.10
2016,07,25,14,34,26.10
2016,07,25,14,35,26.10
2016,07,25,14,36,26.10
2016,07,25,14,37,26.10
2016,07,25,14,38,26.10
2016,07,25,14,39,26.10
2016,07,25,14,40,26.00
2016,07,25,14,41,26.00
2016,07,25,14,42,26.10
2016,07,25,14,43,26.10
2016,07,25,14,44,26.10
2016,07,25,14,45,26.20
2016,07,25,14,46,26.20
2016,07,25,14,47,26.20
2016,07,25,14,48,26.20
2016,07,25,14,49,26.20
2016,07,25,14,50,26.30
2016,07,25,14,51,26.30
2016,07,25,14,52,26.40
2016,07,25,14,53,26.40
2016,07,25,14,54,26.50
2016,07,25,14,55,26.50
2016,07,25,14,56,26.60
2016,07,25,14,57,26.60
2016,07,25,14,58,26.50
2016,07,25,14,59,26.40
2016,07,25,15,00,26.40
2016,07,25,15,01,26.40
2016,07,25,15,02,26.50
2016,07,25,15,03,26.60
2016,07,25,15,04,26.60
2016,07,25,15,05,26.60
2016,07,25,15,06,26.60
2016,07,25,15,07,26.60
2016,07,25,15,08,26.50
2016,07,25,15,09,26.50
2016,07,25,15,10,26.50
2016,07,25,15,11,26.60
2016,07,25,15,12,26.60
2016,07,25,15,13,26.70
2016,07,25,15,14,26.70
2016,07,25,15,15,26.70
2016,07,25,15,16,26.80
2016,07,25,15,17,26.90
2016,07,25,15,18,26.90
2016,07,25,15,19,27.00
2016,07,25,15,20,27.10
2016,07,25,15,21,27.10
2016,07,25,15,22,27.20
2016,07,25,15,23,27.30
2016,07,25,15,24,27.30
2016,07,25,15,25,27.20
2016,07,25,15,26,27.30
2016,07,25,15,27,27.30
2016,07,25,15,28,27.30
2016,07,25,15,29,27.30
2016,07,25,15,30,27.30
2016,07,25,15,31,27.30
2016,07,25,15,32,27.30
2016,07,25,15,33,27.30
2016,07,25,15,34,27.30
2016,07,25,15,35,27.30
2016,07,25,15,36,27.40
2016,07,25,15,37,27.40
2016,07,25,15,38,27.50
2016,07,25,15,39,27.50
2016,07,25,15,40,27.50
2016,07,25,15,41,27.50
2016,07,25,15,42,27.50
2016,07,25,15,43,27.50
2016,07,25,15,44,27.50
2016,07,25,15,45,27.40
2016,07,25,15,46,27.40
2016,07,25,15,47,27.40
2016,07,25,15,48,27.50
2016,07,25,15,49,27.60
2016,07,25,15,50,27.70
2016,07,25,15,51,27.80
2016,07,25,15,52,27.80
2016,07,25,15,53,27.90
2016,07,25,15,54,27.90
2016,07,25,15,55,27.80
2016,07,25,15,56,27.70
2016,07,25,15,57,27.70
2016,07,25,15,58,27.70
2016,07,25,15,59,27.80
2016,07,25,16,00,27.80
2016,07,25,16,01,27.80
2016,07,25,16,02,27.80
2016,07,25,16,03,27.90
2016,07,25,16,04,28.00
2016,07,25,16,05,28.00
2016,07,25,16,06,28.00
2016,07,25,16,07,27.90
2016,07,25,16,08,27.90
2016,07,25,16,09,27.90
2016,07,25,16,10,27.80
2016,07,25,16,11,27.80
2016,07,25,16,12,27.80
2016,07,25,16,13,27.70
2016,07,25,16,14,27.60
2016,07,25,16,15,27.60
2016,07,25,16,16,27.60
2016,07,25,16,17,27.60
2016,07,25,16,18,27.50
2016,07,25,16,19,27.60
2016,07,25,16,20,27.70
2016,07,25,16,21,27.70
2016,07,25,16,22,27.70
2016,07,25,16,23,27.70
2016,07,25,16,24,27.70
2016,07,25,16,25,27.80
2016,07,25,16,26,27.80
2016,07,25,16,27,27.90
2016,07,25,16,28,28.00
2016,07,25,16,29,28.10
2016,07,25,16,30,28.00
2016,07,25,16,31,28.00
2016,07,25,16,32,27.90
2016,07,25,16,33,27.90
2016,07,25,16,34,27.90
2016,07,25,16,35,27.90
2016,07,25,16,36,27.90
2016,07,25,16,37,28.00
2016,07,25,16,38,27.90
2016,07,25,16,39,27.90
2016,07,25,16,40,27.80
2016,07,25,16,41,27.80
2016,07,25,16,42,27.70
2016,07,25,16,43,27.70
2016,07,25,16,44,27.70
2016,07,25,16,45,27.70
2016,07,25,16,46,27.70
2016,07,25,16,47,27.70
2016,07,25,16,48,27.70
2016,07,25,16,49,27.70
2016,07,25,16,50,27.80
2016,07,25,16,51,27.80
2016,07,25,16,52,27.90
2016,07,25,16,53,27.90
2016,07,25,16,54,27.90
2016,07,25,16,55,28.00
2016,07,25,16,56,28.10
2016,07,25,16,57,28.20
2016,07,25,16,58,28.20
2016,07,25,16,59,28.10
2016,07,25,17,00,28.00
2016,07,25,17,01,28.00
2016,07,25,17,02,27.90
2016,07,25,17,03,27.80
2016,07,25,17,04,27.70
2016,07,25,17,05,27.60
2016,07,25,17,06,27.60
2016,07,25,17,07,27.60
2016,07,25,17,08,27.60
2016,07,25,17,09,27.70
2016,07,25,17,10,27.70
2016,07,25,17,11,27.70
2016,07,25,17,12,27.80
2016,07,25,17,13,27.80
2016,07,25,17,14,27.80
2016,07,25,17,15,27.70
2016,07,25,17,16,27.60
2016,07,25,17,17,27.60
2016,07,25,17,18,27.60
2016,07,25,17,19,27.50